Harrison, AR

3:08 PM CDT on July 24, 2017 (GMT -0500)
Boone County

Weather History for KHRO - December, 2014

Change the Weather History Date:

Saturday, December 20, 2014

  Actual Average Record
Temperature  
Mean Temperature 40 °F 37 °F  
Max Temperature 43 °F 46 °F 69 °F (1966)
Min Temperature 36 °F 27 °F -5 °F (1901)
Degree Days  
Heating Degree Days 25 28  
Month to date heating degree days 478 518  
Since 1 July heating degree days 1332 1282  
Cooling Degree Days 0 0  
Month to date cooling degree days 0 0  
Year to date cooling degree days 1354 1416  
Moisture  
Dew Point 38 °F    
Average Humidity 90    
Maximum Humidity 100    
Minimum Humidity 79    
Precipitation  
Precipitation 0.00 in 0.10 in 0.88 in (1991)
Month to date precipitation 1.97 2.15  
Year to date precipitation 40.92 43.09  
Snow  
Snow 0.00 in 0.10 in T in (2012)
Month to date snowfall T 0.2  
Since 1 July snowfall 0.6 0.7  
Snow Depth 0.00 in    
Sea Level Pressure  
Sea Level Pressure 30.22 in    
Wind  
Wind Speed 4 mph (SE)    
Max Wind Speed 9 mph    
Max Gust Speed 11 mph    
Visibility 5 miles    
Events Fog    
T = Trace of Precipitation, MM = Missing Value Source: NWS Daily Summary

Daily Weather History Graph

Daily Weather History Graph

Search for Another Location

Airport or City:

Trip Planner

Search our weather history database for the weather conditions in past years. The results will help you decide how hot, cold, wet, or windy it might be!

Date:

Astronomy

Dec. 20, 2014 Rise Set
Actual Time 7:19 AM CST 5:00 PM CST
Civil Twilight 6:50 AM CST 5:29 PM CST
Nautical Twilight 6:18 AM CST 6:01 PM CST
Astronomical Twilight 5:47 AM CST 6:33 PM CST
Moon 5:38 AM CST (12/20) 4:10 PM CST (12/20)
Length of Visible Light 10h 38m
Length of Day
9h 41m
Waning Crescent, 2% of the Moon is Illuminated
Dec 20
Waning Crescent
Dec 21
New
Dec 28
First Quarter
Jan 4
Full
Jan 13
Last Quarter

Hourly Weather History & Observations

Time (CST) Temp. Windchill Dew Point Humidity Pressure Visibility Wind Dir Wind Speed Gust Speed Precip Events Conditions
12:19 AM 36.0 °F 30.3 °F 36.0 °F 100% 30.20 in 2.0 mi ESE 6.9 mph - 0.00 in   Overcast
12:38 AM 36.0 °F 31.1 °F 36.0 °F 100% 30.20 in 1.2 mi SE 5.8 mph - 0.00 in   Overcast
12:53 AM 36.0 °F 30.3 °F 36.0 °F 100% 30.22 in 0.8 mi SE 6.9 mph - 0.00 in   Mist
1:10 AM 36.0 °F 30.3 °F 36.0 °F 100% 30.19 in 0.5 mi SE 6.9 mph - N/A Fog Fog
1:39 AM 36.0 °F 31.1 °F 36.0 °F 100% 30.19 in 0.2 mi SE 5.8 mph - N/A Fog Fog
1:53 AM 36.0 °F 31.1 °F 36.0 °F 100% 30.22 in 0.2 mi SE 5.8 mph - N/A Fog Fog
2:53 AM 36.0 °F 31.1 °F 36.0 °F 100% 30.21 in 0.2 mi SE 5.8 mph - N/A Fog Fog
3:53 AM 36.0 °F 31.1 °F 36.0 °F 100% 30.21 in 0.2 mi SE 5.8 mph - N/A Fog Fog
4:53 AM 37.0 °F 33.3 °F 37.0 °F 100% 30.22 in 0.2 mi SE 4.6 mph - N/A Fog Fog
5:53 AM 37.0 °F 34.5 °F 37.0 °F 100% 30.23 in 0.2 mi SE 3.5 mph - N/A Fog Fog
6:53 AM 37.0 °F 34.5 °F 37.0 °F 100% 30.25 in 0.2 mi SE 3.5 mph - N/A Fog Fog
7:53 AM 37.4 °F 33.8 °F 37.4 °F 100% 30.22 in 0.2 mi SE 4.6 mph - N/A Fog Fog
8:53 AM 37.9 °F - 37.9 °F 100% 30.26 in 0.2 mi Calm Calm - N/A Fog Fog
9:47 AM 39.2 °F - 39.2 °F 100% 30.24 in 0.8 mi Calm Calm - N/A   Overcast
9:53 AM 39.0 °F - 39.0 °F 100% 30.26 in 1.2 mi Calm Calm - N/A   Overcast
10:09 AM 39.9 °F - 39.9 °F 100% 30.24 in 2.5 mi Calm Calm - N/A   Overcast
10:11 AM 39.9 °F - 39.9 °F 100% 30.24 in 3.0 mi Calm Calm - N/A   Overcast
10:22 AM 39.9 °F - 39.9 °F 100% 30.24 in 2.5 mi Calm Calm - N/A   Overcast
10:32 AM 39.9 °F - 39.9 °F 100% 30.24 in 4.0 mi Calm Calm - N/A   Overcast
10:53 AM 39.9 °F - 39.0 °F 97% 30.26 in 4.0 mi Calm Calm - N/A   Overcast
11:11 AM 39.9 °F 37.8 °F 39.9 °F 100% 30.23 in 5.0 mi SE 3.5 mph - N/A   Overcast
11:53 AM 41.0 °F - 39.0 °F 93% 30.23 in 7.0 mi Calm Calm - N/A   Overcast
12:00 PM 41.0 °F - 39.0 °F 93% 30.21 in 8.0 mi Calm Calm - N/A   Overcast
12:28 PM 42.1 °F - 39.0 °F 89% 30.20 in 10.0 mi Calm Calm - N/A   Overcast
12:53 PM 42.1 °F 39.2 °F 39.0 °F 89% 30.22 in 9.0 mi ESE 4.6 mph - N/A   Overcast
1:53 PM 42.8 °F 38.6 °F 39.2 °F 87% 30.18 in 9.0 mi ESE 6.9 mph - N/A   Overcast
2:53 PM 43.0 °F 40.3 °F 39.0 °F 86% 30.20 in 10.0 mi ESE 4.6 mph - N/A   Overcast
3:53 PM 43.0 °F 40.3 °F 37.9 °F 82% 30.20 in 10.0 mi SSE 4.6 mph - N/A   Overcast
4:53 PM 43.0 °F 38.8 °F 37.9 °F 82% 30.20 in 10.0 mi South 6.9 mph - N/A   Overcast
5:53 PM 42.1 °F 39.2 °F 39.0 °F 89% 30.20 in 10.0 mi SSE 4.6 mph - N/A   Overcast
6:53 PM 41.0 °F 38.0 °F 39.0 °F 93% 30.21 in 10.0 mi SSE 4.6 mph - N/A   Overcast
7:53 PM 39.9 °F 35.8 °F 39.0 °F 97% 30.22 in 8.0 mi SE 5.8 mph - N/A   Overcast
8:53 PM 39.9 °F 36.7 °F 39.0 °F 97% 30.22 in 7.0 mi ESE 4.6 mph - N/A   Overcast
9:53 PM 39.0 °F 36.8 °F 37.9 °F 96% 30.22 in 10.0 mi South 3.5 mph - N/A   Overcast
10:53 PM 41.0 °F - 35.1 °F 79% 30.21 in 10.0 mi Calm Calm - N/A   Overcast
11:53 PM 39.9 °F 35.8 °F 36.0 °F 86% 30.21 in 10.0 mi SSE 5.8 mph - N/A   Overcast